Lid_Strength_Index
-0 -1 -1 -1 -1 -1 -1 -1 -1 -1 -1 -1 -1 -1 -1 -1 -1 -1 -1 -3 -3 -3 -2 -2 -2 -2 -1 -1 -1 -2 -1 -1 -1 -1 -1 -1 -1 -1 -1 -1 -1 -1 -1
-1 -0 -0 -0 -1 -1 -1 -1 -0 -0 -0 -1 -0 -1 -1 -1 -1 -2 -1 -1 -3 -3 -3 -3 -2 -2 -2 -1 -1 -1 -1 -1 -1 -1 -1 -1 -1 -1 -1 -1 -1 -1 -1
-1 -1 -0 -0 -1 -1 -1 -1 -1 -1 -0 -0 -0 -0 -1 -1 -1 -1 -1 -1 -1 -2 -2 -2 -2 -2 -2 -1 -1 -1 -1 -1 -1 -1 -1 -1 -1 -1 -1 -1 -1 -1 -1
-1 -1 -0 -0 -1 -1 -1 -0 -0 0 0 0 0 -0 -0 -1 -1 -1 -1 -1 -1 -1 -2 -3 -2 -2 -1 -1 -1 -1 -1 -1 -1 -1 -1 -1 -1 -1 -1 -1 -1 -1 -1
-1 -1 -0 -0 -1 -0 -0 -0 0 0 1 1 1 0 -0 0 -0 -0 -1 -1 -1 -1 -1 -2 -2 -1 -1 -1 -1 -1 -1 -0 -0 -1 -1 -1 -1 -1 -1 -1 -1 -1 -1
-1 -1 -0 -0 -1 -0 0 0 0 0 1 1 1 1 0 0 -0 -0 -0 -1 -1 -1 -1 -2 -2 -1 -1 -1 -1 -1 -1 -1 -1 -1 -1 -0 -1 -1 -1 -1 -1 -1 -1
-1 -1 -0 -0 -0 0 0 -0 0 1 1 0 2 2 1 0 0 0 -0 -0 -0 -1 -1 -1 -1 -1 -1 -1 -1 -1 -1 -1 -1 -1 -0 -0 -0 -1 -1 -1 -1 -1 -1
-1 -1 -1 -0 -1 -0 -0 -0 0 1 1 1 3 3 5 2 1 1 0 0 -0 -0 -0 -1 -1 -1 -1 -1 -1 -0 -1 -1 -1 -0 -0 0 -0 -1 -1 -1 -1 -1 -1
-1 -1 -1 -1 -1 -0 0 -0 -0 0 2 1 1 3 5 5 3 1 1 0 0 0 -0 -0 -0 -1 -1 -1 -1 -1 -1 -1 -1 -1 -0 0 -0 -1 -1 -1 -1 -1 -1
-1 -1 -1 -1 -1 -1 -0 -0 -0 0 1 2 1 1 1 2 5 6 2 1 0 0 0 -0 -0 -0 -1 -1 -1 -1 0 -0 -1 -1 -1 -0 -1 -1 -1 -1 -1 -1 -1
-1 -1 -1 -1 -1 -0 -0 -0 -0 0 0 1 1 1 2 2 2 4 6 3 1 1 0 0 -0 -0 -1 -1 -1 -0 1 0 0 0 -0 -0 -1 -1 -1 -1 -1 -1 -1
-0 -1 -1 -1 -1 -0 -0 -0 -0 -0 0 0 1 1 2 3 3 3 4 4 4 2 1 0 0 -0 -0 -0 -1 0 1 2 2 2 1 1 -0 -1 -1 -1 -1 -1 -1
1 -0 -1 -1 -0 -1 -0 -0 -0 0 0 1 1 1 1 1 1 2 3 4 4 2 2 1 0 -0 -0 -0 -1 -0 0 2 3 3 3 2 1 -1 -1 -1 -1 -1 -1
3 2 2 1 1 -0 -0 -0 0 0 0 0 0 1 1 1 0 1 2 3 5 4 3 2 0 0 -0 -0 -0 -0 -0 1 4 5 4 3 1 1 0 -0 -0 0 1
4 3 3 2 1 1 1 0 0 0 0 0 1 1 1 1 0 1 1 2 3 6 5 2 2 -0 0 -0 -0 -1 -1 1 3 4 4 3 3 2 1 2 1 1 1
4 4 3 3 3 3 3 2 2 1 1 1 1 1 1 1 0 0 1 1 2 4 5 2 2 1 -0 -0 -0 -0 -0 0 3 4 3 3 3 3 3 2 2 2 2
5 4 4 4 5 4 4 3 3 3 2 1 1 1 1 0 1 1 1 1 2 2 4 3 1 0 0 1 0 -1 -1 -0 0 4 3 3 5 4 3 3 2 2 2
4 4 5 5 5 5 5 5 5 5 4 3 2 1 1 1 1 1 1 2 2 2 3 4 2 2 1 1 0 0 0 -0 -0 2 4 5 5 4 4 4 4 3 5
6 6 6 6 6 6 6 6 6 5 5 4 2 2 1 1 1 1 1 2 2 2 2 3 3 2 1 1 1 1 1 0 -0 3 5 5 4 4 5 5 6 6 6
7 7 6 6 6 6 6 6 6 5 5 4 3 1 1 1 1 1 1 1 1 2 2 3 3 3 2 1 1 2 2 1 1 -0 2 2 3 5 6 5 5 5 7
7 7 7 6 6 6 6 6 6 6 6 6 4 3 0 1 1 1 1 1 2 3 3 4 4 3 3 3 3 2 2 2 1 0 1 1 1 0 2 4 3 4 7
7 7 7 6 6 6 8 8 7 7 7 6 4 3 1 1 1 2 3 3 1 2 3 4 4 4 3 2 2 3 2 3 4 0 1 2 0 1 0 0 4 7 8
7 8 7 7 7 7 8 9 8 6 6 6 5 2 1 1 1 1 2 4 4 4 3 2 3 3 3 2 2 3 3 3 3 1 1 2 1 1 0 2 7 8 8
7 7 7 8 8 7 8 7 7 5 5 5 4 3 1 1 1 1 2 2 2 2 1 2 2 2 1 1 2 2 2 2 1 1 -0 3 1 2 2 3 8 8 8
7 7 7 7 7 6 7 8 7 5 5 5 4 3 1 1 3 6 2 2 2 2 6 6 6 7 8 8 4 1 3 3 4 2 1 2 2 2 4 5 6 8 9
8 7 7 5 7 7 7 8 7 5 6 6 4 3 3 3 6 7 2 3 3 3 2 5 5 8 8 7 6 1 2 3 3 3 1 2 2 2 5 6 6 6 8